Sussex, NJ

3:07 PM EST on January 20, 2017 (GMT -0500)
Sussex

Weather History for KFWN - November, 2012

Change the Weather History Date:

Tuesday, November 13, 2012

  Actual Average Record
Temperature  
Mean Temperature 52 °F -  
Max Temperature 64 °F 48 °F 70 °F (1964)
Min Temperature 39 °F 30 °F 17 °F (1981)
Degree Days  
Heating Degree Days 14    
Growing Degree Days 2 (Base 50)    
Moisture  
Dew Point 38 °F    
Average Humidity 74    
Maximum Humidity 93    
Minimum Humidity 53    
Precipitation  
Precipitation 0.52 in - - ()
Sea Level Pressure  
Sea Level Pressure 30.29 in    
Wind  
Wind Speed 6 mph (NNW)    
Max Wind Speed 17 mph    
Max Gust Speed 31 mph    
Visibility 8 miles    
Events Rain    
Averages and records for this station are not official NWS values.
T = Trace of Precipitation, MM = Missing Value Source: NWS Daily Summary

Daily Weather History Graph

Daily Weather History Graph

Search for Another Location

Airport or City:

Trip Planner

Search our weather history database for the weather conditions in past years. The results will help you decide how hot, cold, wet, or windy it might be!

Date:

Astronomy

Nov. 13, 2012 Rise Set
Actual Time 6:44 AM EST 4:40 PM EST
Civil Twilight 6:15 AM EST 5:10 PM EST
Nautical Twilight 5:41 AM EST 5:43 PM EST
Astronomical Twilight 5:09 AM EST 6:15 PM EST
Moon 6:19 AM EST (11/13) 4:31 PM EST (11/13)
Length of Visible Light 10h 55m
Length of Day
9h 56m
Waning Crescent, 0% of the Moon is Illuminated
Nov 13
Waning Crescent
Nov 13
New
Nov 20
First Quarter
Nov 28
Full
Dec 6
Last Quarter

Hourly Weather History & Observations

Time (EST) Temp. Windchill Dew Point Humidity Pressure Visibility Wind Dir Wind Speed Gust Speed Precip Events Conditions
12:22 AM 62.6 °F - 55.4 °F 77% 30.14 in 10.0 mi South 9.2 mph - N/A   Overcast
12:53 AM 63.0 °F - 55.9 °F 78% 30.11 in 10.0 mi South 11.5 mph 19.6 mph N/A   Overcast
1:53 AM 64.0 °F - 57.0 °F 78% 30.10 in 10.0 mi South 9.2 mph 18.4 mph 0.00 in   Overcast
2:17 AM 51.8 °F - 46.4 °F 82% 30.16 in 2.5 mi NW 17.3 mph 31.1 mph 0.11 in Rain Rain
2:19 AM 51.8 °F - 46.4 °F 82% 30.16 in 3.0 mi NW 12.7 mph 31.1 mph 0.11 in Rain Rain
2:53 AM 50.0 °F - 46.0 °F 86% 30.18 in 7.0 mi Calm Calm - 0.16 in Rain Light Rain
3:53 AM 48.9 °F - 44.1 °F 83% 30.21 in 7.0 mi Calm Calm - 0.02 in Rain Light Rain
4:50 AM 48.2 °F - 44.6 °F 87% 30.21 in 10.0 mi Calm Calm - 0.01 in   Overcast
4:53 AM 48.9 °F - 44.1 °F 83% 30.22 in 7.0 mi Variable 4.6 mph - 0.01 in Rain Light Rain
5:10 AM 48.2 °F - 44.6 °F 87% 30.21 in 10.0 mi Calm Calm - 0.00 in   Overcast
5:26 AM 48.2 °F - 46.4 °F 93% 30.23 in 6.0 mi Variable 3.5 mph - 0.01 in Rain Light Rain
5:34 AM 48.2 °F - 44.6 °F 87% 30.24 in 4.0 mi Calm Calm - 0.02 in Rain Rain
5:53 AM 46.9 °F - 43.0 °F 86% 30.23 in 5.0 mi NNE 6.9 mph - 0.05 in Rain Light Rain
6:24 AM 44.6 °F 40.7 °F 39.2 °F 81% 30.25 in 7.0 mi NW 6.9 mph - 0.01 in Rain Light Rain
6:53 AM 44.1 °F 41.5 °F 39.9 °F 85% 30.28 in 5.0 mi Variable 4.6 mph - 0.05 in Rain Light Rain
7:53 AM 43.0 °F 41.3 °F 39.0 °F 86% 30.32 in 4.0 mi Variable 3.5 mph - 0.07 in Rain Light Rain
8:42 AM 42.8 °F 40.1 °F 37.4 °F 81% 30.30 in 2.0 mi North 4.6 mph - 0.07 in Rain Rain
8:53 AM 42.1 °F 38.4 °F 37.0 °F 82% 30.31 in 3.0 mi Variable 5.8 mph - 0.09 in Rain Light Rain
9:53 AM 41.0 °F 37.1 °F 36.0 °F 82% 30.33 in 10.0 mi NNE 5.8 mph - 0.07 in Rain Light Rain
10:53 AM 43.0 °F 38.2 °F 36.0 °F 76% 30.32 in 10.0 mi NW 8.1 mph - N/A   Scattered Clouds
11:53 AM 44.1 °F 40.8 °F 34.0 °F 68% 30.32 in 10.0 mi NNW 5.8 mph - N/A   Scattered Clouds
12:53 PM 45.0 °F 42.6 °F 33.1 °F 63% 30.32 in 10.0 mi NNW 4.6 mph - N/A   Mostly Cloudy
1:53 PM 45.0 °F 39.7 °F 28.9 °F 53% 30.32 in 10.0 mi WNW 10.4 mph 19.6 mph N/A   Mostly Cloudy
2:53 PM 44.1 °F 41.5 °F 28.9 °F 55% 30.33 in 10.0 mi Variable 4.6 mph - N/A   Overcast
3:53 PM 44.1 °F 40.1 °F 28.9 °F 55% 30.35 in 10.0 mi NW 6.9 mph - N/A   Overcast
4:53 PM 43.0 °F 41.3 °F 28.0 °F 56% 30.37 in 10.0 mi North 3.5 mph - N/A   Overcast
5:53 PM 42.1 °F 40.2 °F 27.0 °F 55% 30.39 in 10.0 mi Variable 3.5 mph - N/A   Overcast
6:53 PM 39.9 °F - 27.0 °F 60% 30.41 in 10.0 mi Calm Calm - N/A   Mostly Cloudy
7:53 PM 39.9 °F 37.8 °F 28.0 °F 63% 30.43 in 10.0 mi NW 3.5 mph - N/A   Overcast
8:53 PM 39.9 °F - 28.0 °F 63% 30.45 in 10.0 mi Calm Calm - N/A   Overcast
9:53 PM 39.0 °F 36.8 °F 27.0 °F 62% 30.46 in 10.0 mi North 3.5 mph - N/A   Overcast
10:53 PM 39.0 °F - 27.0 °F 62% 30.46 in 10.0 mi Calm Calm - N/A   Overcast
11:53 PM 39.0 °F 36.8 °F 28.0 °F 65% 30.46 in 10.0 mi NNE 3.5 mph - N/A   Overcast